Simultaneous Nadir Overpasses (SNOs) Predictions

Prediction of SNOs between NOAA-19 and NPP Satellite Orbit:

Table of predicted SNOs for the next 14.0 days since TLE Epoch: 7/1/2013
Index Date (NOAA-19) Time (NOAA-19) Lat,Lon (NOAA-19) SZA (NOAA-19 ) Date (NPP) Time (NPP) Lat,Lon (NPP) SZA (NPP ) Distance(km) Time Diff (sec)
1 07/09/2013 05:12:40 80.93, 49.28 62.50 07/09/2013 05:13:50 80.93, 49.10 62.49 3.27 70
2 07/09/2013 06:03:48 -80.93,-143.64 117.48 07/09/2013 06:04:35 -80.93,-143.54 117.52 1.65 47
3 07/09/2013 06:54:44 80.92, 23.94 62.49 07/09/2013 06:55:19 80.92, 24.04 62.45 1.74 35
4 07/09/2013 07:45:50 -80.90,-168.25 117.60 07/09/2013 07:46:03 -80.90,-168.24 117.61 0.14 13
5 07/09/2013 08:36:46 80.89, -0.67 62.36 07/09/2013 08:36:47 80.88, -0.66 62.35 0.27 1
6 07/09/2013
